NEONSAT-1A

导读

NEONSAT-1A是韩国科学技术院(KAIST)研发的先进地球观测卫星,于2026年1月30日由Rocket Lab公司的电子号火箭从新西兰发射升空,成功进入540公里近地轨道。它是韩国NEONSAT卫星星座的第二颗卫星,旨在验证该星座监测朝鲜半岛自然灾害与国家安全事件的技术能力,为后续组网建设奠定基础。

Basic Information
目录编号:
67614
目录名称:
NEONSAT-1A
国际标识:
2026-019A
轨道中心:
EARTH
卫星名称:
NEONSAT-1A
卫星全名:
NEONSAT-1A
卫星状态:
在轨 (已飞行218 天)
发射日期:
2026-01-30 UTC
国别 :
韩国 (KR)
星等 :
--
Orbit Information
数据来源 国际轨道数据
星历时间: 2026-09-05T15:02:54+0800
6小时前
查看轨道信息
半长轴: 6918.033km
偏心率: 0.0011535
轨道倾角: 97.434°
近地点辐角 278.755°
升交点赤经 5.875°
平近点角 81.238°
近地点: 531.916km
远地点: 547.876km
周期: 95.441分钟
每日圈数: 15.087902
Detailed Information
使用方式:
暂无
2D Orbit Map
3D Orbit Map
Orbit Altitude Analysis Chart
Orbit Inclination Analysis Chart
Orbit Comprehensive Analysis Chart
View Comprehensive Chart
Conjunction Data List
Event ID Objects TCA Miss Dist (km) Collision Risk Probability Collision Risk Index (CRI) Action
CDM_260907-133406-560106-761421
2026-09-07T
13:34:46+0000
0.431 km
远距离
1.842091E-4 高风险 0.8